COSMOS 2476 (744)

Last updated on Fri Jul 04 2025 00:03:14 GMT+0000 (Coordinated Universal Time)

1 37867U 11064A 25184.53205368 -.00000052 00000+0 00000+0 0 9991 2 37867 65.0705 84.6599 0022166 237.5257 290.6215 2.13101636106336
UTC large
Height (km)
Speed (km/s)
/
Latitude / Longitude
Inclination (degrees)
Orbital Period (minutes)
Azimuth
Elevation
Range (km)
Doppler Factor

Next 0 passes for location: London (51.5072 / 0.1276)

Sorry there are no passes over London.